| time (UTC) | temp F | wind direction | speed knots | gust knots | rain 1hr in | rain 24hr in | rain mn in | humidity % | barometer mb |
| 20260507220544 | 39 | 0.0 | 0.0 | 0.00 | 0.00 | 0.00 | 40 | 1020.1 | |
| 20260507215523 | 40 | 0.0 | 0.0 | 0.00 | 0.00 | 0.00 | 38 | 1020.3 | |
| 20260507214524 | 41 | 0.0 | 0.0 | 0.00 | 0.00 | 0.00 | 37 | 1021.1 | |
| 20260507213524 | 41 | 0.0 | 0.0 | 0.00 | 0.00 | 0.00 | 37 | 1020.1 | |
| 20260507212523 | 41 | 0.0 | 0.0 | 0.00 | 0.00 | 0.00 | 36 | 1020.1 | |
| 20260507211524 | 42 | 0.0 | 0.0 | 0.00 | 0.00 | 0.00 | 35 | 1020.1 | |
| 20260507210527 | 43 | 0.0 | 0.0 | 0.00 | 0.00 | 0.00 | 34 | 1020.1 | |
| 20260507205524 | 43 | 0.0 | 0.0 | 0.00 | 0.00 | 0.00 | 33 | 1020.1 | |
| 20260507204603 | 44 | 0.0 | 0.0 | 0.00 | 0.00 | 0.00 | 32 | 1020.1 | |
| 20260507203524 | 45 | 0.0 | 0.0 | 0.00 | 0.00 | 0.00 | 31 | 1020.1 | |
| 20260507202525 | 46 | 0.0 | 0.0 | 0.00 | 0.00 | 0.00 | 30 | 1020.1 | |
| 20260507201543 | 47 | 0.0 | 0.0 | 0.00 | 0.00 | 0.00 | 29 | 1020.1 | |
| 20260507200522 | 48 | 0.0 | 0.0 | 0.00 | 0.00 | 0.00 | 28 | 1020.1 | |
| 20260507195524 | 48 | 0.0 | 0.0 | 0.00 | 0.00 | 0.00 | 28 | 1019.9 | |
| 20260507194518 | 49 | 0.0 | 0.0 | 0.00 | 0.00 | 0.00 | 27 | 1019.1 | |
| 20260507193521 | 50 | 0.0 | 0.0 | 0.00 | 0.00 | 0.00 | 26 | 1019.1 | |
| 20260507192523 | 52 | 0.0 | 0.0 | 0.00 | 0.00 | 0.00 | 23 | 1019.1 | |
| 20260507191524 | 53 | 0.0 | 0.0 | 0.00 | 0.00 | 0.00 | 22 | 1019.1 | |
| 20260507190523 | 54 | 293 | 0.0 | 1.7 | 0.00 | 0.00 | 0.00 | 21 | 1019.1 |
| 20260507185544 | 55 | 293 | 0.0 | 0.9 | 0.00 | 0.00 | 0.00 | 21 | 1019.1 |
| 20260507184523 | 56 | 293 | 0.0 | 0.9 | 0.00 | 0.00 | 0.00 | 20 | 1019.1 |
| 20260507183523 | 57 | 0.0 | 0.0 | 0.00 | 0.00 | 0.00 | 21 | 1019.1 | |
| 20260507182524 | 57 | 293 | 0.0 | 0.9 | 0.00 | 0.00 | 0.00 | 20 | 1019.1 |
| 20260507181607 | 58 | 280 | 1.7 | 4.3 | 0.00 | 0.00 | 0.00 | 20 | 1019.1 |
| 20260507180523 | 59 | 293 | 3.5 | 6.1 | 0.00 | 0.00 | 0.00 | 20 | 1018.1 |
| 20260507175524 | 59 | 270 | 5.2 | 5.2 | 0.00 | 0.00 | 0.00 | 20 | 1018.1 |
| 20260507174525 | 59 | 275 | 6.1 | 7.0 | 0.00 | 0.00 | 0.00 | 19 | 1018.1 |
| 20260507173523 | 61 | 293 | 6.1 | 7.8 | 0.00 | 0.00 | 0.00 | 19 | 1018.1 |
| 20260507172523 | 62 | 267 | 7.0 | 8.7 | 0.00 | 0.00 | 0.00 | 19 | 1018.1 |
| 20260507171523 | 65 | 279 | 5.2 | 6.1 | 0.00 | 0.00 | 0.00 | 19 | 1018.1 |
| 20260507170523 | 65 | 280 | 5.2 | 7.0 | 0.00 | 0.00 | 0.00 | 19 | 1018.1 |
| 20260507165524 | 66 | 288 | 7.0 | 8.7 | 0.00 | 0.00 | 0.00 | 18 | 1018.1 |
| 20260507164523 | 68 | 259 | 7.8 | 9.6 | 0.00 | 0.00 | 0.00 | 18 | 1018.1 |
| 20260507163542 | 70 | 308 | 3.5 | 5.2 | 0.00 | 0.00 | 0.00 | 19 | 1018.1 |
| 20260507162526 | 70 | 290 | 5.2 | 7.8 | 0.00 | 0.00 | 0.00 | 18 | 1018.1 |
| 20260507161525 | 70 | 259 | 6.1 | 8.7 | 0.00 | 0.00 | 0.00 | 18 | 1018.1 |
| 20260507160546 | 71 | 292 | 7.0 | 8.7 | 0.00 | 0.00 | 0.00 | 17 | 1018.1 |
| 20260507155523 | 72 | 288 | 5.2 | 7.0 | 0.00 | 0.00 | 0.00 | 17 | 1018.1 |
| 20260507154520 | 74 | 285 | 4.3 | 7.0 | 0.00 | 0.00 | 0.00 | 17 | 1018.1 |
| 20260507153524 | 74 | 280 | 5.2 | 7.8 | 0.00 | 0.00 | 0.00 | 17 | 1017.1 |
| 20260507152604 | 74 | 266 | 7.0 | 9.6 | 0.00 | 0.00 | 0.00 | 17 | 1017.1 |
| 20260507151517 | 75 | 290 | 6.1 | 7.0 | 0.00 | 0.00 | 0.00 | 17 | 1017.1 |
| 20260507150523 | 75 | 265 | 6.1 | 8.7 | 0.00 | 0.00 | 0.00 | 18 | 1017.1 |
| 20260507145524 | 75 | 283 | 6.1 | 9.6 | 0.00 | 0.00 | 0.00 | 18 | 1017.1 |
| 20260507144515 | 76 | 275 | 6.1 | 7.8 | 0.00 | 0.00 | 0.00 | 17 | 1017.1 |
| 20260507143524 | 76 | 280 | 5.2 | 8.7 | 0.00 | 0.00 | 0.00 | 18 | 1017.1 |
| 20260507142523 | 74 | 272 | 7.0 | 9.6 | 0.00 | 0.00 | 0.00 | 17 | 1017.1 |
| 20260507141522 | 76 | 285 | 7.0 | 8.7 | 0.00 | 0.00 | 0.00 | 19 | 1017.1 |
| 20260507140521 | 79 | 267 | 7.8 | 9.6 | 0.00 | 0.00 | 0.00 | 19 | 1017.1 |
| 20260507135539 | 79 | 289 | 5.2 | 6.1 | 0.00 | 0.00 | 0.00 | 20 | 1017.1 |
| 20260507134516 | 78 | 276 | 3.5 | 6.1 | 0.00 | 0.00 | 0.00 | 20 | 1017.1 |
| 20260507133517 | 77 | 274 | 2.6 | 9.6 | 0.00 | 0.00 | 0.00 | 20 | 1017.1 |
| 20260507132523 | 81 | 273 | 2.6 | 5.2 | 0.00 | 0.00 | 0.00 | 22 | 1017.1 |
| 20260507131524 | 79 | 282 | 1.7 | 3.5 | 0.00 | 0.00 | 0.00 | 23 | 1017.1 |
| 20260507130523 | 76 | 272 | 2.6 | 6.1 | 0.00 | 0.00 | 0.00 | 23 | 1017.1 |
| 20260507125527 | 76 | 269 | 8.7 | 9.6 | 0.00 | 0.00 | 0.00 | 24 | 1017.1 |
| 20260507124525 | 77 | 256 | 3.5 | 9.6 | 0.00 | 0.00 | 0.00 | 24 | 1017.1 |
| 20260507123524 | 75 | 32 | 1.7 | 3.5 | 0.00 | 0.00 | 0.00 | 25 | 1017.1 |
| 20260507122532 | 73 | 267 | 6.1 | 9.6 | 0.00 | 0.00 | 0.00 | 25 | 1017.1 |
| 20260507121526 | 72 | 299 | 4.3 | 8.7 | 0.00 | 0.00 | 0.00 | 27 | 1017.1 |
| 20260507120523 | 74 | 278 | 5.2 | 5.2 | 0.00 | 0.00 | 0.00 | 27 | 1017.1 |
| 20260507115523 | 76 | 338 | 0.0 | 1.7 | 0.00 | 0.00 | 0.00 | 26 | 1017.1 |
| 20260507114524 | 73 | 293 | 3.5 | 5.2 | 0.00 | 0.00 | 0.00 | 28 | 1017.1 |
| 20260507113544 | 74 | 272 | 4.3 | 10.4 | 0.00 | 0.00 | 0.00 | 28 | 1017.1 |
| 20260507112523 | 74 | 300 | 0.0 | 0.9 | 0.00 | 0.00 | 0.00 | 29 | 1017.1 |
| 20260507111523 | 74 | 0.0 | 0.0 | 0.00 | 0.00 | 0.00 | 29 | 1017.1 | |
| 20260507110524 | 71 | 293 | 1.7 | 2.6 | 0.00 | 0.00 | 0.00 | 30 | 1017.1 |
| 20260507105523 | 66 | 293 | 0.0 | 1.7 | 0.00 | 0.00 | 0.00 | 31 | 1017.1 |
| 20260507104528 | 69 | 330 | 4.3 | 7.8 | 0.00 | 0.00 | 0.00 | 32 | 1017.1 |
| 20260507103523 | 69 | 298 | 3.5 | 5.2 | 0.00 | 0.00 | 0.00 | 32 | 1017.1 |
| 20260507102524 | 67 | 248 | 0.9 | 2.6 | 0.00 | 0.00 | 0.00 | 33 | 1017.1 |
| 20260507101524 | 67 | 261 | 3.5 | 6.1 | 0.00 | 0.00 | 0.00 | 33 | 1017.1 |
| 20260507100516 | 65 | 275 | 7.8 | 9.6 | 0.00 | 0.00 | 0.00 | 38 | 1016.1 |
| 20260507095544 | 64 | 258 | 2.6 | 4.3 | 0.00 | 0.00 | 0.00 | 38 | 1016.1 |
| 20260507094523 | 65 | 315 | 0.0 | 0.9 | 0.00 | 0.00 | 0.00 | 42 | 1016.1 |
| 20260507093523 | 63 | 293 | 0.0 | 1.7 | 0.00 | 0.00 | 0.00 | 45 | 1016.1 |
| 20260507092543 | 61 | 259 | 3.5 | 5.2 | 0.00 | 0.00 | 0.00 | 48 | 1016.1 |
| 20260507091524 | 60 | 0.0 | 0.0 | 0.00 | 0.00 | 0.00 | 48 | 1016.1 | |
| 20260507090523 | 59 | 293 | 0.0 | 1.7 | 0.00 | 0.00 | 0.00 | 50 | 1016.1 |
| 20260507085524 | 57 | 268 | 2.6 | 5.2 | 0.00 | 0.00 | 0.00 | 51 | 1016.1 |
| 20260507084524 | 57 | 267 | 0.9 | 3.5 | 0.00 | 0.00 | 0.00 | 52 | 1016.1 |
| 20260507083524 | 55 | 23 | 0.9 | 2.6 | 0.00 | 0.00 | 0.00 | 54 | 1016.1 |
| 20260507082523 | 54 | 0.0 | 0.0 | 0.00 | 0.00 | 0.00 | 54 | 1016.1 | |
| 20260507081521 | 53 | 264 | 5.2 | 7.0 | 0.00 | 0.00 | 0.00 | 55 | 1016.1 |
| 20260507080519 | 52 | 256 | 2.6 | 4.3 | 0.00 | 0.00 | 0.00 | 56 | 1016.1 |
| 20260507075517 | 51 | 256 | 1.7 | 5.2 | 0.00 | 0.00 | 0.00 | 59 | 1016.1 |
| 20260507074603 | 50 | 248 | 0.9 | 3.5 | 0.00 | 0.00 | 0.00 | 62 | 1016.1 |
| 20260507073523 | 49 | 248 | 0.9 | 1.7 | 0.00 | 0.00 | 0.00 | 63 | 1016.1 |
| 20260507072523 | 48 | 254 | 3.5 | 7.8 | 0.00 | 0.00 | 0.00 | 64 | 1016.1 |
| 20260507071524 | 47 | 253 | 3.5 | 5.2 | 0.00 | 0.00 | 0.00 | 66 | 1016.1 |
| 20260507070527 | 46 | 248 | 0.9 | 4.3 | 0.00 | 0.00 | 0.00 | 68 | 1016.1 |
| 20260507065519 | 45 | 249 | 3.5 | 5.2 | 0.00 | 0.00 | 0.00 | 69 | 1016.1 |
| 20260507064523 | 43 | 293 | 0.0 | 0.9 | 0.00 | 0.00 | 0.00 | 70 | 1016.1 |
| 20260507063523 | 42 | 0.0 | 0.0 | 0.00 | 0.00 | 0.00 | 71 | 1016.1 | |
| 20260507062538 | 40 | 0.0 | 0.0 | 0.00 | 0.00 | 0.00 | 71 | 1016.1 | |
| 20260507061523 | 39 | 0.0 | 0.0 | 0.00 | 0.00 | 0.00 | 70 | 1016.1 | |
| 20260507060524 | 37 | 0.0 | 0.0 | 0.00 | 0.00 | 0.00 | 70 | 1016.1 | |
| 20260507055519 | 36 | 0.0 | 0.0 | 0.00 | 0.00 | 0.00 | 69 | 1016.1 | |
| 20260507054523 | 35 | 0.0 | 0.0 | 0.00 | 0.00 | 0.00 | 69 | 1016.1 | |
| 20260507053523 | 34 | 0.0 | 0.0 | 0.00 | 0.00 | 0.00 | 69 | 1015.1 | |
| 20260507052523 | 33 | 0.0 | 0.0 | 0.00 | 0.00 | 0.00 | 68 | 1015.1 | |
| 20260507051524 | 32 | 0.0 | 0.0 | 0.00 | 0.00 | 0.00 | 68 | 1015.1 | |
| 20260507050523 | 32 | 0.0 | 0.0 | 0.00 | 0.00 | 0.00 | 68 | 1015.1 | |
| 20260507045523 | 32 | 0.0 | 0.0 | 0.00 | 0.00 | 0.00 | 68 | 1015.1 | |
| 20260507044524 | 31 | 0.0 | 0.0 | 0.00 | 0.00 | 0.00 | 67 | 1015.1 | |
| 20260507043524 | 31 | 0.0 | 0.0 | 0.00 | 0.00 | 0.00 | 67 | 1015.1 | |
| 20260507042516 | 30 | 0.0 | 0.0 | 0.00 | 0.00 | 0.00 | 67 | 1015.1 | |
| 20260507041543 | 30 | 0.0 | 0.0 | 0.00 | 0.00 | 0.00 | 67 | 1015.1 | |
| 20260507040523 | 30 | 0.0 | 0.0 | 0.00 | 0.00 | 0.00 | 66 | 1015.1 | |
| 20260507035523 | 29 | 0.0 | 0.0 | 0.00 | 0.00 | 0.00 | 66 | 1015.1 | |
| 20260507034604 | 30 | 0.0 | 0.0 | 0.00 | 0.00 | 0.00 | 66 | 1015.1 | |
| 20260507033523 | 29 | 0.0 | 0.0 | 0.00 | 0.00 | 0.00 | 65 | 1015.1 | |
| 20260507032523 | 30 | 0.0 | 0.0 | 0.00 | 0.00 | 0.00 | 65 | 1015.1 | |
| 20260507031522 | 30 | 0.0 | 0.0 | 0.00 | 0.00 | 0.00 | 65 | 1015.1 | |
| 20260507030547 | 30 | 0.0 | 0.0 | 0.00 | 0.00 | 0.00 | 65 | 1015.1 | |
| 20260507025604 | 30 | 0.0 | 0.0 | 0.00 | 0.00 | 0.00 | 64 | 1015.1 | |
| 20260507024521 | 30 | 0.0 | 0.0 | 0.00 | 0.00 | 0.00 | 64 | 1015.1 | |
| 20260507023522 | 30 | 0.0 | 0.0 | 0.00 | 0.00 | 0.00 | 64 | 1015.1 | |
| 20260507022522 | 30 | 0.0 | 0.0 | 0.00 | 0.00 | 0.00 | 63 | 1015.1 | |
| 20260507021518 | 31 | 0.0 | 0.0 | 0.00 | 0.00 | 0.00 | 63 | 1015.1 | |
| 20260507020517 | 31 | 0.0 | 0.0 | 0.00 | 0.00 | 0.00 | 63 | 1015.1 | |
| 20260507015523 | 31 | 0.0 | 0.0 | 0.00 | 0.00 | 0.00 | 63 | 1014.9 | |
| 20260507014524 | 31 | 0.0 | 0.0 | 0.00 | 0.00 | 0.00 | 62 | 1014.1 | |
| 20260507013523 | 32 | 0.0 | 0.0 | 0.00 | 0.00 | 0.00 | 62 | 1014.1 | |
| 20260507012524 | 32 | 0.0 | 0.0 | 0.00 | 0.00 | 0.00 | 61 | 1014.1 | |
| 20260507011523 | 32 | 0.0 | 0.0 | 0.00 | 0.00 | 0.00 | 61 | 1014.1 | |
| 20260507010523 | 32 | 0.0 | 0.0 | 0.00 | 0.00 | 0.00 | 60 | 1014.1 | |
| 20260507005523 | 33 | 0.0 | 0.0 | 0.00 | 0.00 | 0.00 | 60 | 1014.1 | |
| 20260507004523 | 33 | 0.0 | 0.0 | 0.00 | 0.00 | 0.00 | 60 | 1014.1 | |
| 20260507003524 | 33 | 0.0 | 0.0 | 0.00 | 0.00 | 0.00 | 60 | 1014.1 | |
| 20260507002523 | 33 | 0.0 | 0.0 | 0.00 | 0.00 | 0.00 | 59 | 1014.1 | |
| 20260507001524 | 33 | 0.0 | 0.0 | 0.00 | 0.00 | 0.00 | 58 | 1014.1 | |
| 20260507000544 | 34 | 0.0 | 0.0 | 0.00 | 0.00 | 0.00 | 58 | 1014.1 | |
| 20260506235524 | 34 | 0.0 | 0.0 | 0.00 | 0.00 | 0.00 | 57 | 1014.1 | |
| 20260506234523 | 34 | 0.0 | 0.0 | 0.00 | 0.00 | 0.00 | 56 | 1014.1 | |
| 20260506233523 | 35 | 0.0 | 0.0 | 0.00 | 0.00 | 0.00 | 56 | 1014.1 | |
| 20260506232523 | 35 | 0.0 | 0.0 | 0.00 | 0.00 | 0.00 | 56 | 1014.1 | |
| 20260506231516 | 36 | 0.0 | 0.0 | 0.00 | 0.00 | 0.00 | 56 | 1014.1 | |
| 20260506230523 | 36 | 0.0 | 0.0 | 0.00 | 0.00 | 0.00 | 55 | 1014.1 | |
| 20260506225523 | 36 | 0.0 | 0.0 | 0.00 | 0.00 | 0.00 | 55 | 1014.1 | |
| 20260506224525 | 36 | 0.0 | 0.0 | 0.00 | 0.00 | 0.00 | 55 | 1014.1 | |
| 20260506223544 | 37 | 0.0 | 0.0 | 0.00 | 0.00 | 0.00 | 54 | 1013.1 | |
| 20260506222523 | 37 | 0.0 | 0.0 | 0.00 | 0.00 | 0.00 | 53 | 1013.1 | |
| 20260506221523 | 38 | 0.0 | 0.0 | 0.00 | 0.00 | 0.00 | 52 | 1013.1 |